#timestamp,LO_Frequency,Hit,StdDev 
1582257615.4,286047002.3,N
1582257635.2,286046998.8,N
1582257655.0,286046998.3,N
1582257655.9,286046998.3,N
1582257675.8,286046998.6,N
1582257695.6,286047002.6,N
1582257715.5,286047004.3,N
1582257735.3,286047004.3,N
1582257755.2,286047003.0,N
1582257775.9,286047005.9,N
1582257795.7,286047003.3,N
1582257815.6,286047001.8,N
1582257835.4,286047004.4,N
1582257855.2,286047003.7,N
1582257875.1,286047004.0,N
1582257876.0,286047004.0,N
1582257895.8,286047006.0,N
1582257915.7,286047005.2,N
1582257935.5,286047003.8,N
1582257955.3,286047005.2,N
1582257975.2,286047005.6,N
1582257995.0,286047005.5,N
1582257995.9,286047005.5,N
1582258015.8,286047005.9,N
1582258035.6,286047005.2,N
1582258055.4,286047005.2,N
1582258075.3,286047003.0,N
1582258095.1,286047004.1,N
1582258115.8,286046998.2,N
1582258135.7,286047000.8,N
1582258155.5,286047004.0,N
1582258175.4,286047005.0,N
1582258195.2,286047005.4,N
1582258215.0,286047005.6,N
1582258215.9,286047005.6,N
1582258235.8,286047003.6,N
1582258255.6,286047003.2,N
1582258275.5,286047003.6,N
1582258295.3,286047004.1,N
1582258315.1,286047004.4,N
1582258335.9,286047006.0,Y
1582258355.7,286047000.1,P
1582258375.6,286047000.4,N
1582258395.4,286047000.9,N
1582258415.2,286046999.3,N
1582258435.1,286046997.1,N
1582258436.0,286046997.1,N
1582258455.8,286046999.6,N
1582258475.7,286046997.2,N
1582258495.5,286046998.4,N
1582258515.3,286046998.5,N
1582258535.2,286046998.4,N
1582258555.0,286046996.6,N
1582258555.9,286046996.6,N
1582258575.8,286046998.7,N
1582258595.6,286047001.2,N
1582258615.4,286047002.8,N
1582258635.3,286047002.7,N
1582258655.1,286047001.2,N
1582258675.8,286046999.4,N
1582258695.7,286046998.7,N
1582258715.5,286047000.1,N
1582258735.4,286047001.2,N
1582258755.2,286046998.7,N
1582258775.0,286046998.4,N
1582258775.9,286046998.4,N
1582258795.8,286046998.8,N
1582258815.6,286046999.5,N
1582258835.4,286046998.8,N
1582258855.3,286046999.2,N
1582258875.1,286046998.4,N
1582258895.9,286047001.1,N
1582258915.7,286047000.0,N
1582258935.5,286047002.1,N
1582258955.4,286047000.5,N
1582258975.2,286046999.7,N
1582258995.1,286047000.1,N
1582258996.0,286047000.1,N
1582259015.8,286047001.9,N
1582259035.6,286046998.1,N
1582259055.5,286047001.9,N
1582259075.3,286047002.6,N
1582259095.1,286047000.0,N
1582259115.9,286047000.9,N
1582259135.7,286046998.1,N
1582259155.6,286047000.8,N
1582259175.4,286046999.8,N
1582259195.2,286047002.6,N
1582259215.1,286047001.9,N
1582259216.0,286047001.9,N
1582259235.8,286047002.6,N
1582259255.7,286047001.3,N
1582259275.6,286047002.5,N
1582259295.4,286047000.6,N
1582259315.3,286047000.6,N
1582259335.1,286047000.9,N
1582259336.0,286047000.9,N
1582259355.8,286047001.1,N
1582259375.7,286047002.6,N
1582259395.5,286047000.1,N
1582259415.3,286046999.7,N
1582259435.2,286047000.8,N
1582259455.0,286047001.4,N
1582259455.9,286047001.4,N
1582259475.8,286047003.1,N
1582259495.6,286047003.2,N
1582259515.4,286047003.5,N
1582259535.3,286047001.3,N
1582259555.1,286047000.6,N
1582259575.9,286047000.8,N
1582259595.7,286047000.6,N
1582259615.5,286046999.9,N
1582259635.4,286047000.6,N
1582259655.2,286047000.3,N
1582259675.0,286047001.1,N
1582259676.0,286047001.1,N
1582259695.8,286047002.3,N
1582259715.6,286047001.6,N
1582259735.5,286047002.8,N
1582259755.3,286047002.8,N
1582259775.1,286047004.9,Y
1582259795.9,286047008.5,P
1582259815.7,286047007.2,N
1582259835.6,286047005.7,N
1582259855.4,286047006.6,N
1582259875.2,286047005.3,N
1582259895.1,286047004.9,N
1582259896.0,286047004.9,N
1582259915.8,286047005.8,N
1582259935.7,286047007.3,Y
1582259955.5,286047000.9,P
1582259975.3,286046999.5,N
1582259995.2,286046997.6,N
1582260015.0,286046993.4,N
1582260015.9,286046993.4,N
1582260035.8,286046995.9,N
1582260055.6,286046995.0,N
1582260075.4,286046996.1,N
1582260095.3,286046996.2,N
1582260115.1,286046999.4,N
1582260135.8,286046998.1,N
1582260155.7,286046999.4,N
1582260175.5,286046995.4,N
1582260195.4,286046997.0,N
1582260215.2,286046996.8,N
1582260235.0,286046997.5,N
1582260235.9,286046997.5,N
1582260255.8,286046999.4,N
1582260275.6,286046997.1,N
1582260295.5,286046996.9,N
1582260315.3,286046997.5,N
1582260335.1,286046995.3,N
1582260355.9,286046995.4,N
1582260375.7,286046995.5,N
1582260395.6,286046995.2,N
1582260415.4,286046995.4,N
1582260435.2,286046997.6,N
1582260455.1,286046997.9,N
1582260456.0,286046997.9,N
1582260475.8,286046995.4,N
1582260495.7,286046995.3,N
1582260515.5,286046996.2,N
1582260535.3,286046993.4,Y
1582260555.2,286046997.0,P
1582260575.0,286046999.6,N
1582260575.9,286046999.6,N
1582260595.7,286047000.9,N
1582260615.6,286047000.9,N
1582260635.4,286046999.7,N
1582260655.3,286046998.3,N
1582260675.1,286046998.8,N
1582260676.0,286046998.8,N
1582260695.8,286046996.5,N
1582260715.7,286046999.3,N
1582260735.5,286046999.4,N
1582260755.4,286046998.4,N
1582260775.2,286046998.1,N
1582260795.0,286047000.8,N
1582260795.9,286047000.8,N
1582260815.8,286047002.2,N
1582260835.6,286047001.1,N
1582260855.4,286046998.1,N
1582260875.3,286047001.6,N
1582260895.1,286046999.7,N
1582260915.9,286047001.9,N
1582260935.7,286047000.1,N
1582260955.5,286046998.8,N
1582260975.4,286046999.0,N
1582260995.2,286046999.1,N
1582261015.1,286047001.0,N
1582261016.0,286047001.0,N
1582261035.8,286046998.7,N
1582261055.6,286046996.5,N
1582261075.5,286046999.0,N
1582261095.3,286046999.3,N
1582261115.2,286046996.5,N
1582261135.9,286046998.6,N
1582261155.7,286046999.0,N
1582261175.6,286047001.0,N
1582261195.4,286047000.3,N
